User: anonymous   Login
Location: Unspecified
(0.0000°N, 0.0000°E)
Time: 19:52:38
(UTC+00:00)
Language:

NOAA 15 - Orbit

View from above orbital plane
View from above orbital plane
View from above satellite
View from above satellite

Ground track
Ground track

The orbit data is extracted from the following two-line orbital elements,

1 25338U 98030A   18114.85819192  .00341731  00000-0  13181+0 0  9991
2 25338  98.7723 131.2506 0011381  22.1496 338.0174 14.28065180 37411
Epoch (UTC): 24 April 2018 20:35:47
Eccentricity: 0.0011381
inclination: 98.7723°
perigee height: 790 km
apogee height: 806 km
right ascension of ascending node: 131.2506°
argument of perigee: 22.1496°
revolutions per day: 14.28065180
mean anomaly at epoch: 338.0174°
orbit number at epoch: 3741

The dashed part of the orbit path shows where the satellite is in the earth's shadow,  

DLR